Location: Altadena
(34.1900°N, 118.1300°W)
Time: 06:33:53
(UTC-07:00)

ISS - Visible Passes

Search period start: 14 July 2024 00:00
Search period end: 24 July 2024 00:00
Orbit: 410 x 424 km, 51.6° (Epoch: 14 July)

Date Brightness Start Highest point End Pass type
(mag) Time Alt. Az. Time Alt. Az. Time Alt. Az.
20 Jul -0.3 23:25:11 10° NNW 23:25:30 12° NNW 23:25:30 12° NNW visible
21 Jul -0.9 22:37:23 10° N 22:38:37 13° NNE 22:38:37 13° NNE visible
22 Jul -0.3 23:24:30 10° NW 23:24:38 11° NW 23:24:38 11° NW visible
23 Jul -1.4 22:36:14 10° NNW 22:37:47 22° N 22:37:47 22° N visible
